Flag for U.S.A. Weather past 2 weeks in Vista, California, U.S.A.

Now
59 °F

Light rain. Mostly cloudy.


Feels Like: 58 °F
Forecast: 56 / 65 °F
Wind: 6 mph from Southwest

Location: McClellan-Palomar Airport

Current Time: Apr 25, 2015 at 7:53:17 AM

Latest Report: Apr 25, 2015 at 6:53 AM


Visibility: 6 mi

Pressure: 29.97 "Hg

Humidity: 84%

Dew point: 54 °F

Location of VistaLocation

Historic Weather in Vista — Graph

°F

Vista temperature yesterday

Maximum temperature yesterday: 63 °F (at 4:01 PM)
Minimum temperature yesterday: 57 °F (at 7:53 AM)
Average temperature yesterday: 59 °F

Past Weeks' High & Low Weather Summary

 TemperatureHumidityPressure
High77 °F (Apr 16, 10:53 AM)97% (Apr 19, 5:53 AM)30.09 "Hg (Apr 19, 5:53 AM)
Low53 °F (Apr 10, 6:53 AM)6% (Apr 16, 10:53 AM)29.85 "Hg (Apr 20, 5:53 PM)
Average62 °F66%29.95 "Hg
* Reported Apr 10 5:53 AM — Apr 25 5:53 AM, Vista, Weather by CustomWeather, © 2015

Note: Actual official high and low records may vary slightly from our data, if they occured in-between our weather recording intervals... More about our weather records

Advertising

Vista weather history for previous 24 hours

 ConditionsComfort  
Time TempWeatherWind HumidityBarometerVisibility
5:53 AM
Sat, Apr 25
59 °FOvercast.No wind78%29.97 "Hg10 mi
4:53 AM59 °FMostly cloudy.3 mph78%29.96 "Hg10 mi
3:53 AM59 °FOvercast.5 mph78%29.97 "Hg10 mi
2:53 AM59 °FMostly cloudy.3 mph78%29.98 "Hg10 mi
1:53 AM59 °FMostly cloudy.6 mph78%29.98 "Hg10 mi
12:53 AM59 °FOvercast.3 mph75%29.99 "Hg10 mi
11:53 PM
Fri, Apr 24
60 °FOvercast.3 mph72%30.00 "Hg10 mi
10:53 PM60 °FMostly cloudy.3 mph72%30.01 "Hg10 mi
9:53 PM60 °FOvercast.3 mph72%30.01 "Hg10 mi
8:53 PM60 °FOvercast.5 mph69%30.00 "Hg10 mi
8:00 PM60 °FMore clouds than sun.7 mph72%29.99 "Hg10 mi
7:03 PM60 °FCloudy.8 mph75%29.99 "Hg10 mi
6:53 PM60 °FMore clouds than sun.6 mph75%29.99 "Hg10 mi
5:53 PM61 °FMostly cloudy.8 mph70%29.98 "Hg10 mi
4:01 PM63 °FMore clouds than sun.10 mph70%29.99 "Hg10 mi
2:53 PM61 °FMostly cloudy.8 mph72%30.00 "Hg10 mi
2:01 PM60 °FMore clouds than sun.9 mph78%30.01 "Hg10 mi
1:02 PM60 °FMore clouds than sun.6 mph80%30.01 "Hg10 mi
12:04 PM59 °FMore clouds than sun.6 mph84%30.02 "Hg10 mi
11:53 AM59 °FFog.8 mph87%30.01 "Hg6 mi
11:02 AM58 °FFog.7 mph90%30.02 "Hg2 mi
10:55 AM59 °FFog.8 mph87%30.02 "Hg2 mi
9:53 AM59 °FMostly cloudy.8 mph87%30.00 "Hg10 mi
8:53 AM59 °FLow clouds.5 mph87%29.99 "Hg10 mi
8:03 AM58 °FLight rain. Mostly cloudy.No wind93%29.98 "Hg7 mi
7:53 AM57 °FLight rain. Fog.No wind93%29.97 "Hg2 mi
Weather by CustomWeather, © 2015

See weather overviewHow to use our weather pages